{"data":{"norad_id":56843,"epoch":"2026-09-20T21:25:27.070752Z","epoch_age_seconds":83661,"freshness":"FRESH","line1":"1 56843U 23079W   26263.89267443  .00000250  00000+0  18610-4 0  9995","line2":"2 56843  43.0052  84.4123 0001492 269.5835  90.4846 15.27582612182740","mean_motion":15.27582612,"eccentricity":0.0001492,"inclination_deg":43.0052,"raan_deg":84.4123,"arg_perigee_deg":269.5835,"mean_anomaly_deg":90.4846,"bstar":1.861e-5,"rev_number":18274,"period_min":94.266587527772,"perigee_km":482.01758698454,"apogee_km":484.06496258173,"semimajor_km":6861.1782747831,"source":"CELESTRAK","updated_at":"2026-09-21T09:00:33.518509Z"}}